DW5315 Weather Reports


time (UTC)temp
C
wind
direction
speed
KPH
gust
KPH
rain 1hr
cm
rain 24hr
cm
rain mn
cm
humidity
%
barometer
mb
20260906140107 23 38 3.2 6.4 0.00 0.00 0.00 88 1017.2
20260906134608 23 46 1.6 8.0 0.00 0.00 0.00 87 1017.5
20260906133119 22 309 1.6 6.4 0.00 0.00 0.00 89 1017.3
20260906131605 22 178 1.6 8.0 0.00 0.00 0.00 90 1017.2
20260906130117 22 221 0.0 8.0 0.00 0.00 0.00 90 1017.0
20260906124601 22 338 1.6 6.4 0.00 0.00 0.00 91 1016.9
20260906123104 22 0 1.6 4.8 0.00 0.00 0.00 91 1016.7
20260906121606 22 0 0.0 4.8 0.00 0.00 0.00 91 1016.6
20260906120119 22 0 1.6 4.8 0.00 0.00 0.00 90 1016.7
20260906114601 22 0 0.0 3.2 0.00 0.00 0.00 90 1016.4
20260906113104 22 0 0.0 3.2 0.00 0.00 0.00 90 1016.1
20260906111604 22 178 0.0 4.8 0.00 0.00 0.00 89 1016.0
20260906110103 22 0 0.0 4.8 0.00 0.00 0.00 89 1015.9
20260906104602 23 282 0.0 3.2 0.00 0.00 0.00 89 1015.8
20260906103101 23 51 0.0 6.4 0.00 0.00 0.00 89 1015.8
20260906101606 23 0 0.0 4.8 0.00 0.00 0.00 88 1015.7
20260906100103 23 0 0.0 3.2 0.00 0.00 0.00 88 1015.6
20260906094610 23 341 1.6 6.4 0.00 0.00 0.00 88 1015.2
20260906093118 24 334 0.0 3.2 0.00 0.00 0.00 87 1015.1
20260906091617 24 321 0.0 6.4 0.00 0.00 0.00 87 1015.1
20260906090140 24 0 0.0 4.8 0.00 0.00 0.00 87 1015.2
20260906084627 24 0 0.0 3.2 0.00 0.00 0.00 87 1015.1
20260906083103 25 22 0.0 3.2 0.00 0.00 0.00 87 1014.9
20260906081603 25 0 0.0 4.8 0.00 0.00 0.00 86 1014.9
20260906080110 25 9 0.0 4.8 0.00 0.00 0.00 87 1014.9
20260906074605 25 9 0.0 4.8 0.00 0.00 0.00 87 1015.0
20260906073104 26 221 0.0 3.2 0.00 0.00 0.00 87 1015.0
20260906071603 26 61 0.0 4.8 0.00 0.00 0.00 87 1014.9
20260906070105 26 0 0.0 4.8 0.00 0.00 0.00 86 1014.8
20260906064602 26 265 0.0 3.2 0.00 0.00 0.00 86 1014.9
20260906063104 26 338 0.0 9.7 0.00 0.00 0.00 85 1014.8
20260906061607 27 0 1.6 8.0 0.00 0.00 0.00 84 1014.7
20260906060106 27 137 3.2 19.3 0.00 0.00 0.00 83 1015.1
20260906054607 27 39 1.6 12.9 0.00 0.00 0.00 83 1015.0
20260906053119 27 93 1.6 11.3 0.00 0.00 0.00 83 1014.9
20260906051613 27 0 0.0 3.2 0.00 0.00 0.00 83 1015.0
20260906050106 27 0 0.0 3.2 0.00 0.00 0.00 82 1014.6
20260906044621 27 0 0.0 3.2 0.00 0.00 0.00 81 1014.5
20260906043104 27 93 0.0 3.2 0.00 0.00 0.00 80 1014.5
20260906041601 28 0 0.0 3.2 0.00 0.00 0.00 79 1014.3
20260906040105 28 0 0.0 1.6 0.00 0.00 0.00 78 1014.2
20260906034603 28 0 0.0 1.6 0.00 0.00 0.00 77 1014.2
20260906033104 28 291 0.0 3.2 0.00 0.00 0.00 76 1014.2
20260906031605 28 0 0.0 4.8 0.00 0.00 0.00 75 1013.9
20260906030107 28 0 0.0 3.2 0.00 0.00 0.00 74 1013.8
20260906024623 28 0 0.0 3.2 0.00 0.00 0.00 73 1013.8
20260906023106 28 0 0.0 1.6 0.00 0.00 0.00 72 1013.5
20260906021608 28 0 0.0 1.6 0.00 0.00 0.00 72 1013.3
20260906020108 28 0 0.0 1.6 0.00 0.00 0.00 72 1013.2
20260906014605 29 0 0.0 1.6 0.00 0.00 0.00 71 1012.9
20260906013109 29 0 0.0 1.6 0.00 0.00 0.00 70 1012.8
20260906011604 29 0 0.0 1.6 0.00 0.00 0.00 70 1012.8
20260906010132 30 0 0.0 3.2 0.00 0.00 0.00 68 1012.7
20260906004605 30 0 0.0 1.6 0.00 0.00 0.00 66 1012.5
20260906003107 31 0 0.0 3.2 0.00 0.00 0.00 65 1012.5
20260906001611 31 0 0.0 3.2 0.00 0.00 0.00 63 1012.4
20260906000107 32 0 0.0 3.2 0.00 0.00 0.00 62 1012.2
20260905234608 33 93 0.0 3.2 0.00 0.00 0.00 60 1012.4
20260905233115 33 0 0.0 6.4 0.00 0.00 0.00 59 1012.4
20260905231603 33 51 0.0 3.2 0.00 0.00 0.00 59 1012.5
20260905230122 34 68 0.0 6.4 0.00 0.00 0.00 54 1012.4
20260905224606 35 336 0.0 6.4 0.00 0.00 0.00 55 1012.7
20260905223105 36 119 1.6 6.4 0.00 0.00 0.00 54 1012.3
20260905221608 37 0 1.6 12.9 0.00 0.00 0.00 50 1012.1
20260905220105 38 0 1.6 9.7 0.00 0.00 0.00 46 1012.3
20260905214602 40 51 1.6 17.7 0.00 0.00 0.00 41 1012.2
20260905213107 40 247 1.6 11.3 0.00 0.00 0.00 39 1012.2
20260905211603 40 295 4.8 14.5 0.00 0.00 0.00 41 1012.4
20260905210107 40 51 4.8 19.3 0.00 0.00 0.00 40 1012.7
20260905204612 40 298 3.2 11.3 0.00 0.00 0.00 41 1012.6
20260905203107 39 301 3.2 12.9 0.00 0.00 0.00 43 1012.7
20260905201610 40 344 3.2 12.9 0.00 0.00 0.00 40 1012.8
20260905200110 40 0 4.8 17.7 0.00 0.00 0.00 40 1012.9
20260905194605 41 165 4.8 14.5 0.00 0.00 0.00 38 1013.0
20260905193104 40 284 1.6 14.5 0.00 0.00 0.00 38 1013.2
20260905191602 40 47 1.6 12.9 0.00 0.00 0.00 40 1013.5
20260905190104 40 34 3.2 12.9 0.00 0.00 0.00 41 1013.4
20260905184613 40 32 3.2 16.1 0.00 0.00 0.00 42 1013.6
20260905183115 40 63 3.2 17.7 0.00 0.00 0.00 42 1014.0
20260905181603 39 279 1.6 8.0 0.00 0.00 0.00 44 1014.1
20260905180106 39 158 3.2 14.5 0.00 0.00 0.00 48 1014.0
20260905174608 38 338 3.2 11.3 0.00 0.00 0.00 51 1014.1
20260905173108 38 64 1.6 9.7 0.00 0.00 0.00 48 1014.3
20260905171603 37 9 3.2 9.7 0.00 0.00 0.00 51 1014.5
20260905170112 37 334 1.6 11.3 0.00 0.00 0.00 53 1014.6
20260905164608 36 51 3.2 11.3 0.00 0.00 0.00 52 1014.7
20260905163105 36 338 1.6 14.5 0.00 0.00 0.00 51 1014.9
20260905161601 36 265 1.6 6.4 0.00 0.00 0.00 54 1015.0
20260905154606 35 41 1.6 8.0 0.00 0.00 0.00 55 1015.1
20260905153105 34 0 1.6 14.5 0.00 0.00 0.00 58 1015.1
20260905151611 33 38 1.6 14.5 0.00 0.00 0.00 60 1015.0
20260905144603 32 126 0.0 6.4 0.00 0.00 0.00 66 1014.9
20260905143104 31 265 0.0 4.8 0.00 0.00 0.00 67 1015.0
20260905141604 30 282 0.0 6.4 0.00 0.00 0.00 68 1015.0